Voltar ao catálogo

RS95S

QMR-KWT-2

AtivoRádio AmadorSSO
NORAD 67291·PAYLOAD·🇰🇼 Kuwait

Lançado Dec 28, 2025 de Vostochny Cosmodrome

Loading…

Próximas Passagens (próximas 24 horas)

TLE

AtualizadoSource: AMSAT

Época: Sep 13, 2026, 11:06 UTC

1 67291U 25313AV  26256.46305240  .00011024  00000-0  40121-3 0  9993
2 67291  97.3861 330.8513 0009260  49.9472 310.2578 15.28360312 39465

Acompanhe RS95S em tempo real com AllMySat

Download on the App Store